Estación de San Javier

Ultimos registro cada 15 minutos 23
Estación Fecha / Hora Temperatura Humedad Lluvia Velocidad Dirección Radiación Presion
23 San Javier 10-05-2026 05:30 2,9 91 0 0 355 0 1016,5
22 San Javier 10-05-2026 05:15 2,9 92 0 0 355 0 1016,6
21 San Javier 10-05-2026 05:00 2,9 92 0 0 355 0 1016,4
20 San Javier 10-05-2026 04:45 3,1 90 0 0 355 0 1016,4
19 San Javier 10-05-2026 04:30 3,4 90 0 0 355 0 1016,4
18 San Javier 10-05-2026 04:15 3,7 90 0 0 355 0 1016,5
17 San Javier 10-05-2026 04:00 3,9 91 0 0 355 0 1016,4
16 San Javier 10-05-2026 03:45 4,1 88 0 0 22 0 1016,4
15 San Javier 10-05-2026 03:30 4,6 86 0 0 22 0 1016,7
14 San Javier 10-05-2026 03:15 5,1 87 0 0 22 0 1016,7
13 San Javier 10-05-2026 03:00 5,4 86 0 0 22 0 1016,5
12 San Javier 10-05-2026 02:45 5,8 86 0 0 22 0 1016,4
11 San Javier 10-05-2026 02:30 6,1 85 0 0 22 0 1016,6
10 San Javier 10-05-2026 02:15 6,3 85 0 0 41 0 1016,8
9 San Javier 10-05-2026 02:00 6,8 83 0 0 23 0 1016,9
8 San Javier 10-05-2026 01:45 7,3 82 0 0 23 0 1017,1
7 San Javier 10-05-2026 01:30 7,7 81 0 0 18 0 1017
6 San Javier 10-05-2026 01:15 7,9 81 0 0,9 9 0 1017,1
5 San Javier 10-05-2026 01:00 8,1 81 0 0,9 355 0 1017,1
4 San Javier 10-05-2026 00:45 8,2 82 0 0,4 12 0 1017,1
3 San Javier 10-05-2026 00:30 8,2 82 0 0,9 355 0 1017,2
2 San Javier 10-05-2026 00:15 8,3 82 0 0,9 9 0 1017,4
1 San Javier 10-05-2026 00:00 8,3 82 0 0,9 360 0 1017,5